Weather History for KLWS - April, 2013

Change the Weather History Date:

Thursday, April 11, 2013

  Actual Average Record
Temperature  
Mean Temperature 48 °F 50 °F  
Max Temperature 57 °F 61 °F 83 °F (1913)
Min Temperature 38 °F 40 °F 27 °F (1997)
Degree Days  
Heating Degree Days 17 15  
Month to date heating degree days 136 171  
Since 1 July heating degree days 4126 4638  
Cooling Degree Days 0 0  
Month to date cooling degree days 0 0  
Year to date cooling degree days 0 0  
Moisture  
Dew Point 31 °F    
Average Humidity 53    
Maximum Humidity 70    
Minimum Humidity 35    
Precipitation  
Precipitation 0.00 in 0.04 in 0.57 in (1941)
Month to date precipitation 0.58 0.44  
Year to date precipitation 2.43 3.45  
Snow  
Snow 0.00 in 0.00 in T in (1971)
Month to date snowfall 0.0 0.0  
Since 1 July snowfall 2.6 10.5  
Snow Depth 0.00 in    
Sea Level Pressure  
Sea Level Pressure 30.12 in    
Wind  
Wind Speed 7 mph (WSW)    
Max Wind Speed 20 mph    
Max Gust Speed 26 mph    
Visibility 10 miles    
Events      
T = Trace of Precipitation, MM = Missing Value Source: NWS Daily Summary

Daily Weather History Graph

Daily Weather History Graph

Search for Another Location

Airport or City:

Trip Planner

Search our weather history database for the weather conditions in past years. The results will help you decide how hot, cold, wet, or windy it might be!

Date:

Astronomy

Apr. 11, 2013 Rise Set
Actual Time 6:08 AM PDT 7:30 PM PDT
Civil Twilight 5:36 AM PDT 8:02 PM PDT
Nautical Twilight 4:59 AM PDT 8:39 PM PDT
Astronomical Twilight 4:18 AM PDT 9:20 PM PDT
Moon 6:37 AM PDT (4/11) 9:16 PM PDT (4/11)
Length of Visible Light 14h 25m
Length of Day
13h 22m
New Moon, 2% of the Moon is Illuminated
Apr 11
New Moon
Apr 18
First Quarter
Apr 25
Full
May 2
Last Quarter
May 9
New

Hourly Weather History & Observations

Time (PDT) Temp. Windchill Dew Point Humidity Pressure Visibility Wind Dir Wind Speed Gust Speed Precip Events Conditions
12:56 AM 48.9 °F - 33.1 °F 54% 30.09 in 10.0 mi WNW 8.1 mph - N/A   Mostly Cloudy
1:56 AM 42.1 °F 39.2 °F 33.1 °F 70% 30.10 in 10.0 mi East 4.6 mph - N/A   Clear
2:56 AM 46.0 °F 41.9 °F 34.0 °F 63% 30.11 in 10.0 mi SSW 8.1 mph - N/A   Clear
3:56 AM 43.0 °F 37.7 °F 33.1 °F 68% 30.12 in 10.0 mi SSW 9.2 mph - N/A   Clear
4:56 AM 42.1 °F 37.1 °F 33.1 °F 70% 30.12 in 10.0 mi SSW 8.1 mph - N/A   Clear
5:56 AM 42.1 °F 37.1 °F 32.0 °F 67% 30.12 in 10.0 mi SSW 8.1 mph - N/A   Clear
6:56 AM 43.0 °F 41.3 °F 32.0 °F 65% 30.14 in 10.0 mi South 3.5 mph - N/A   Clear
7:56 AM 48.0 °F - 33.1 °F 56% 30.15 in 10.0 mi Calm Calm - N/A   Clear
8:56 AM 50.0 °F - 35.1 °F 57% 30.15 in 10.0 mi Variable 3.5 mph - N/A   Scattered Clouds
9:56 AM 51.1 °F - 33.1 °F 50% 30.16 in 10.0 mi Calm Calm - N/A   Mostly Cloudy
10:56 AM 51.1 °F - 33.1 °F 50% 30.17 in 10.0 mi South 6.9 mph - N/A   Mostly Cloudy
11:56 AM 53.1 °F - 30.0 °F 41% 30.14 in 10.0 mi WNW 13.8 mph 23.0 mph N/A   Mostly Cloudy
12:56 PM 55.0 °F - 30.0 °F 38% 30.13 in 10.0 mi WNW 15.0 mph - N/A   Partly Cloudy
1:56 PM 55.0 °F - 30.0 °F 38% 30.13 in 10.0 mi NW 15.0 mph 18.4 mph N/A   Clear
2:56 PM 57.0 °F - 30.9 °F 37% 30.12 in 10.0 mi WNW 13.8 mph 23.0 mph N/A   Partly Cloudy
3:56 PM 55.9 °F - 28.9 °F 36% 30.12 in 10.0 mi WNW 11.5 mph 18.4 mph N/A   Partly Cloudy
4:56 PM 55.9 °F - 28.9 °F 36% 30.11 in 10.0 mi WNW 13.8 mph 19.6 mph N/A   Clear
5:56 PM 55.0 °F - 28.0 °F 35% 30.11 in 10.0 mi West 10.4 mph 19.6 mph N/A   Overcast
6:56 PM 53.1 °F - 28.0 °F 38% 30.09 in 10.0 mi WNW 8.1 mph - N/A   Clear
7:56 PM 51.1 °F - 28.0 °F 41% 30.09 in 10.0 mi WNW 4.6 mph - N/A   Clear
8:56 PM 44.1 °F - 30.0 °F 58% 30.11 in 10.0 mi Calm Calm - N/A   Clear
9:56 PM 42.1 °F 40.2 °F 30.0 °F 62% 30.12 in 10.0 mi South 3.5 mph - N/A   Clear
10:56 PM 39.0 °F 36.8 °F 30.0 °F 70% 30.13 in 10.0 mi South 3.5 mph - N/A   Clear
11:56 PM 43.0 °F - 28.9 °F 58% 30.12 in 10.0 mi Calm Calm - N/A   Clear